W8DRH-13 Weather Reports


Display with metric or nautical units.
time (UTC)temp
F
wind
direction
speed
MPH
gust
MPH
rain 1hr
in
rain 24hr
in
rain mn
in
humidity
%
barometer
mb
20260903051143 81 282 5.0 6.0 0.00 0.00 0.00 80 1013.5
20260903050638 81 284 5.0 6.0 0.00 0.00 0.00 80 1013.4
20260903050132 81 248 6.0 7.0 0.00 0.00 0.00 80 1013.4
20260903045632 81 266 5.0 7.0 0.00 0.00 0.00 80 1013.3
20260903045129 81 263 6.0 7.0 0.00 0.00 0.00 79 1013.1
20260903044624 82 270 4.0 7.0 0.00 0.00 0.00 79 1013.2
20260903044120 82 249 4.0 6.0 0.00 0.00 0.00 79 1013.1
20260903043616 82 278 7.0 8.0 0.00 0.00 0.00 79 1013.2
20260903043115 82 289 6.0 7.0 0.00 0.00 0.00 79 1013.2
20260903042615 82 252 7.0 8.0 0.00 0.00 0.00 79 1013.1
20260903042110 82 262 6.0 8.0 0.00 0.00 0.00 79 1013.1
20260903041607 82 265 6.0 7.0 0.00 0.00 0.00 79 1013.1
20260903041102 82 245 4.0 4.0 0.00 0.00 0.00 79 1013.0
20260903040601 82 284 5.0 7.0 0.00 0.00 0.00 79 1013.0
20260903040058 82 254 4.0 6.0 0.00 0.00 0.00 79 1012.8
20260903035553 82 218 4.0 6.0 0.00 0.00 0.00 79 1012.8
20260903035049 82 220 6.0 8.0 0.00 0.00 0.00 79 1012.8
20260903034543 82 234 4.0 4.0 0.00 0.00 0.00 79 1013.0
20260903034039 82 220 6.0 8.0 0.00 0.00 0.00 79 1012.9
20260903033533 82 250 4.0 4.0 0.00 0.00 0.00 79 1012.8
20260903033029 82 255 5.0 6.0 0.00 0.00 0.00 79 1013.0
20260903032524 82 211 5.0 8.0 0.00 0.00 0.00 79 1012.8
20260903032019 82 233 6.0 7.0 0.00 0.00 0.00 79 1013.0
20260903031519 82 247 5.0 6.0 0.00 0.00 0.00 79 1013.0
20260903031014 82 234 5.0 6.0 0.00 0.00 0.00 79 1013.2
20260903030509 82 238 3.0 3.0 0.00 0.00 0.00 79 1013.3
20260903030006 82 244 5.0 7.0 0.00 0.00 0.00 79 1013.3
20260903025501 82 260 5.0 7.0 0.00 0.00 0.00 79 1013.5
20260903024956 82 240 4.0 4.0 0.00 0.00 0.00 79 1013.4
20260903024455 82 240 5.0 6.0 0.00 0.00 0.00 79 1013.5
20260903023950 82 238 4.0 4.0 0.00 0.00 0.00 79 1013.5
20260903023446 82 228 4.0 4.0 0.00 0.00 0.00 79 1013.6
20260903022941 82 231 4.0 4.0 0.00 0.00 0.00 79 1013.6
20260903022440 82 232 4.0 4.0 0.00 0.00 0.00 79 1013.6
20260903021938 82 225 4.0 6.0 0.00 0.00 0.00 79 1013.5
20260903021434 82 231 3.0 3.0 0.00 0.00 0.00 79 1013.7
20260903020929 82 239 4.0 4.0 0.00 0.00 0.00 79 1013.4
20260903020424 83 217 3.0 3.0 0.00 0.00 0.00 79 1013.4
20260903015919 83 250 4.0 6.0 0.00 0.00 0.00 78 1013.4
20260903015415 83 224 3.0 4.0 0.00 0.00 0.00 78 1013.6
20260903014910 83 228 4.0 4.0 0.00 0.00 0.00 78 1013.6
20260903014408 83 232 4.0 6.0 0.00 0.00 0.00 78 1013.6
20260903013904 83 224 4.0 4.0 0.00 0.00 0.00 77 1013.5
20260903013403 84 236 2.0 2.0 0.00 0.00 0.00 77 1013.6
20260903012903 84 223 4.0 4.0 0.00 0.00 0.00 77 1013.6
20260903012357 84 232 4.0 4.0 0.00 0.00 0.00 76 1013.6
20260903011855 84 229 4.0 4.0 0.00 0.00 0.00 76 1013.3
20260903011350 84 214 4.0 4.0 0.00 0.00 0.00 76 1013.4
20260903010846 84 214 3.0 3.0 0.00 0.00 0.00 76 1013.3
20260903010341 84 232 4.0 4.0 0.00 0.00 0.00 76 1013.3
20260903005839 84 223 2.0 2.0 0.00 0.00 0.00 76 1013.4
20260903005335 84 211 3.0 3.0 0.00 0.00 0.00 75 1013.3
20260903004831 85 224 3.0 3.0 0.00 0.00 0.00 75 1013.1
20260903004325 85 228 3.0 3.0 0.00 0.00 0.00 75 1013.2
20260903003815 85 224 3.0 4.0 0.00 0.00 0.00 74 1013.4
20260903003310 85 213 3.0 4.0 0.00 0.00 0.00 74 1013.1
20260903002804 85 228 3.0 3.0 0.00 0.00 0.00 74 1013.1
20260903002306 85 209 2.0 2.0 0.00 0.00 0.00 74 1013.2
20260903001759 86 230 3.0 3.0 0.00 0.00 0.00 73 1013.1
20260903001254 86 228 3.0 3.0 0.00 0.00 0.00 73 1013.3
20260903000748 86 204 2.0 2.0 0.00 0.00 0.00 72 1013.0
20260903000243 86 228 2.0 3.0 0.00 0.00 0.00 72 1013.3
20260902235742 87 228 3.0 3.0 0.00 0.00 0.00 71 1013.1
20260902235237 87 230 3.0 3.0 0.00 0.00 0.00 71 1013.0
20260902234736 87 215 3.0 3.0 0.00 0.00 0.00 71 1013.1
20260902234235 87 212 2.0 3.0 0.00 0.00 0.00 70 1012.9
20260902233730 88 224 4.0 4.0 0.00 0.00 0.00 70 1012.9
20260902233230 88 222 2.0 2.0 0.00 0.00 0.00 69 1012.7
20260902232728 88 234 4.0 6.0 0.00 0.00 0.00 68 1013.1
20260902232223 89 276 4.0 4.0 0.00 0.00 0.00 68 1012.9
20260902231717 89 240 5.0 6.0 0.00 0.00 0.00 67 1013.0
20260902231212 89 280 5.0 6.0 0.00 0.00 0.00 66 1012.8
20260902230707 89 233 3.0 4.0 0.00 0.00 0.00 66 1012.9
20260902230206 90 202 3.0 4.0 0.00 0.00 0.00 66 1012.9
20260902225700 90 250 6.0 7.0 0.00 0.00 0.00 65 1012.8
20260902225155 90 221 5.0 6.0 0.00 0.00 0.00 65 1013.0
20260902224653 90 228 4.0 4.0 0.00 0.00 0.00 64 1013.1
20260902224149 91 234 5.0 6.0 0.00 0.00 0.00 64 1013.0
20260902223645 91 231 3.0 3.0 0.00 0.00 0.00 64 1012.9
20260902223144 91 305 4.0 6.0 0.00 0.00 0.00 63 1013.1
20260902222638 91 272 5.0 6.0 0.00 0.00 0.00 63 1013.0
20260902222136 91 223 5.0 8.0 0.00 0.00 0.00 63 1013.1
20260902221631 92 241 5.0 6.0 0.00 0.00 0.00 63 1013.0
20260902221125 92 227 5.0 6.0 0.00 0.00 0.00 62 1013.1
20260902220621 92 271 6.0 6.0 0.00 0.00 0.00 61 1013.2
20260902220116 92 283 3.0 3.0 0.00 0.00 0.00 62 1013.1
20260902215612 92 237 7.0 8.0 0.00 0.00 0.00 61 1013.1
20260902215107 92 213 5.0 7.0 0.00 0.00 0.00 61 1013.0
20260902214602 92 255 8.0 9.0 0.00 0.00 0.00 60 1013.0
20260902214101 91 229 9.0 14.0 0.00 0.00 0.00 61 1013.1
20260902213557 92 238 8.0 9.0 0.00 0.00 0.00 62 1013.1
20260902213056 92 232 7.0 9.0 0.00 0.00 0.00 62 1013.1
20260902212552 92 250 9.0 14.0 0.00 0.00 0.00 62 1013.0
20260902212048 92 283 10.0 13.0 0.00 0.00 0.00 61 1013.1
20260902211543 93 234 8.0 9.0 0.00 0.00 0.00 60 1013.2
20260902211038 92 220 6.0 8.0 0.00 0.00 0.00 62 1013.2
20260902210538 92 252 7.0 8.0 0.00 0.00 0.00 62 1013.3
20260902210032 92 233 8.0 9.0 0.00 0.00 0.00 62 1013.3
20260902205526 92 237 4.0 4.0 0.00 0.00 0.00 62 1013.4
20260902205022 93 230 7.0 8.0 0.00 0.00 0.00 60 1013.3
20260902204521 92 222 7.0 9.0 0.00 0.00 0.00 61 1013.4
20260902204017 92 225 9.0 10.0 0.00 0.00 0.00 62 1013.4
20260902203512 93 296 9.0 10.0 0.00 0.00 0.00 61 1013.5
20260902203011 92 212 3.0 4.0 0.00 0.00 0.00 63 1013.6
20260902202507 92 233 8.0 11.0 0.00 0.00 0.00 63 1013.6
20260902202004 93 238 7.0 8.0 0.00 0.00 0.00 61 1013.7
20260902201503 92 254 6.0 8.0 0.00 0.00 0.00 62 1013.7
20260902200958 92 289 8.0 9.0 0.00 0.00 0.00 62 1013.7
20260902200453 92 272 4.0 6.0 0.00 0.00 0.00 63 1013.9
20260902195948 93 233 5.0 6.0 0.00 0.00 0.00 61 1013.6
20260902195444 93 218 4.0 6.0 0.00 0.00 0.00 62 1013.8
20260902194938 92 246 8.0 10.0 0.00 0.00 0.00 62 1013.9
20260902194437 92 219 6.0 9.0 0.00 0.00 0.00 63 1013.9
20260902193933 92 256 7.0 9.0 0.00 0.00 0.00 62 1014.1
20260902193428 91 297 7.0 9.0 0.00 0.00 0.00 64 1014.0
20260902192927 92 278 5.0 8.0 0.00 0.00 0.00 63 1014.1
20260902192426 92 266 7.0 8.0 0.00 0.00 0.00 62 1014.2
20260902191925 92 248 5.0 6.0 0.00 0.00 0.00 62 1014.3
20260902191421 92 287 5.0 7.0 0.00 0.00 0.00 62 1014.4
20260902190916 92 261 7.0 9.0 0.00 0.00 0.00 62 1014.3
20260902190411 92 223 6.0 6.0 0.00 0.00 0.00 64 1014.4
20260902185907 92 221 2.0 4.0 0.00 0.00 0.00 64 1014.4
20260902185402 91 249 7.0 9.0 0.00 0.00 0.00 63 1014.5
20260902184857 92 251 9.0 9.0 0.00 0.00 0.00 63 1014.6
20260902184353 91 236 2.0 3.0 0.00 0.00 0.00 65 1014.4
20260902183848 92 236 6.0 8.0 0.00 0.00 0.00 64 1014.6
20260902183344 91 291 5.0 6.0 0.00 0.00 0.00 64 1014.5
20260902182840 91 230 6.0 7.0 0.00 0.00 0.00 64 1014.9
20260902182336 91 224 4.0 4.0 0.00 0.00 0.00 62 1014.8
20260902181832 91 258 5.0 7.0 0.00 0.00 0.00 63 1014.9
20260902181328 91 252 6.0 7.0 0.00 0.00 0.00 64 1015.1
20260902180821 91 259 6.0 8.0 0.00 0.00 0.00 65 1015.1
20260902180317 91 257 5.0 6.0 0.00 0.00 0.00 65 1014.9
20260902175812 91 263 3.0 3.0 0.00 0.00 0.00 65 1015.1
20260902175308 90 237 6.0 7.0 0.00 0.00 0.00 64 1015.1
20260902174803 91 226 7.0 9.0 0.00 0.00 0.00 65 1015.1
20260902174300 91 271 4.0 4.0 0.00 0.00 0.00 64 1015.1
20260902173755 91 259 3.0 3.0 0.00 0.00 0.00 66 1015.2
20260902173249 90 263 6.0 7.0 0.00 0.00 0.00 65 1015.3
20260902172743 90 243 5.0 7.0 0.00 0.00 0.00 64 1015.4
20260902172238 90 228 6.0 8.0 0.00 0.00 0.00 67 1015.4
20260902171733 90 263 6.0 8.0 0.00 0.00 0.00 66 1015.5
20260902171228 90 278 8.0 10.0 0.00 0.00 0.00 65 1015.6
20260902170724 90 217 6.0 7.0 0.00 0.00 0.00 65 1015.8
20260902170219 90 279 7.0 8.0 0.00 0.00 0.00 68 1015.6
20260902165714 89 214 3.0 4.0 0.00 0.00 0.00 70 1015.6
20260902165209 89 236 4.0 4.0 0.00 0.00 0.00 70 1015.6
20260902164708 88 231 5.0 7.0 0.00 0.00 0.00 71 1015.6
20260902164203 88 258 5.0 7.0 0.00 0.00 0.00 71 1015.9
20260902163658 88 245 4.0 6.0 0.00 0.00 0.00 72 1016.0
20260902163158 88 232 5.0 6.0 0.00 0.00 0.00 72 1015.9
20260902162656 88 215 1.0 2.0 0.00 0.00 0.00 75 1015.8
20260902162150 88 226 4.0 4.0 0.00 0.00 0.00 73 1015.7
20260902161646 87 259 4.0 4.0 0.00 0.00 0.00 75 1015.8
20260902161142 87 278 3.0 3.0 0.00 0.00 0.00 75 1015.8
20260902160638 87 242 4.0 6.0 0.00 0.00 0.00 75 1015.7
20260902160133 87 214 2.0 3.0 0.00 0.00 0.00 75 1015.9
20260902155631 87 214 1.0 1.0 0.00 0.00 0.00 75 1015.8
20260902155130 87 213 1.0 2.0 0.00 0.00 0.00 75 1015.7
20260902154625 87 213 2.0 3.0 0.00 0.00 0.00 76 1015.9
20260902154120 86 213 2.0 3.0 0.00 0.00 0.00 77 1015.8
20260902153619 86 213 3.0 3.0 0.00 0.00 0.00 77 1015.8
20260902153114 85 213 1.0 1.0 0.00 0.00 0.00 79 1015.8
20260902152611 84 214 2.0 3.0 0.00 0.00 0.00 78 1015.8
20260902152106 84 214 4.0 4.0 0.00 0.00 0.00 78 1015.9
20260902151602 85 213 2.0 2.0 0.00 0.00 0.00 78 1015.9
20260902151101 85 213 1.0 2.0 0.00 0.00 0.00 77 1015.7
20260902150556 85 213 1.0 1.0 0.00 0.00 0.00 75 1015.7
20260902150051 85 213 1.0 2.0 0.00 0.00 0.00 77 1016.0
20260902145541 84 213 1.0 1.0 0.00 0.00 0.00 76 1015.9
20260902145040 84 213 3.0 3.0 0.00 0.00 0.00 76 1015.6
20260902144538 84 213 2.0 2.0 0.00 0.00 0.00 76 1015.7
20260902144037 84 213 3.0 3.0 0.00 0.00 0.00 76 1015.7
20260902143532 83 213 3.0 3.0 0.00 0.00 0.00 77 1015.7
20260902143028 83 213 2.0 2.0 0.00 0.00 0.00 77 1015.7
20260902142523 83 213 3.0 3.0 0.00 0.00 0.00 78 1015.3
20260902142018 82 213 0.0 1.0 0.00 0.00 0.00 79 1015.6
20260902141513 82 213 0.0 1.0 0.00 0.00 0.00 80 1015.3
20260902141008 82 213 1.0 1.0 0.00 0.00 0.00 80 1015.6
20260902140503 82 213 1.0 1.0 0.00 0.00 0.00 80 1015.7
20260902140003 81 213 1.0 1.0 0.00 0.00 0.00 81 1015.7
20260902135458 81 213 0.0 1.0 0.00 0.00 0.00 82 1015.5
20260902134958 80 213 0.0 1.0 0.00 0.00 0.00 82 1015.7
20260902134454 80 213 1.0 1.0 0.00 0.00 0.00 83 1015.6
20260902133953 79 214 0.0 1.0 0.00 0.00 0.00 84 1015.7
20260902133448 79 214 0.0 0.0 0.00 0.00 0.00 84 1015.7
20260902132943 78 214 0.0 1.0 0.00 0.00 0.00 84 1015.9
20260902132438 78 214 1.0 1.0 0.00 0.00 0.00 86 1015.8
20260902131933 77 214 2.0 2.0 0.00 0.00 0.00 86 1015.7
20260902131430 77 214 1.0 1.0 0.00 0.00 0.00 86 1015.8
20260902130930 77 203 0.0 1.0 0.00 0.00 0.00 87 1015.5
20260902130426 77 135 0.0 1.0 0.00 0.00 0.00 88 1015.7
20260902125925 76 135 0.0 1.0 0.00 0.00 0.00 88 1015.7
20260902125422 76 133 1.0 1.0 0.00 0.00 0.00 88 1015.7
20260902124917 76 129 0.0 0.0 0.00 0.00 0.00 88 1015.5
20260902124414 75 135 0.0 1.0 0.00 0.00 0.00 89 1015.4
20260902123914 75 134 1.0 1.0 0.00 0.00 0.00 90 1015.5
20260902123410 75 118 1.0 1.0 0.00 0.00 0.00 90 1015.4
20260902122908 74 112 0.0 1.0 0.00 0.00 0.00 90 1015.5
20260902122404 74 124 0.0 0.0 0.00 0.00 0.00 91 1015.4
20260902121859 74 125 1.0 1.0 0.00 0.00 0.00 91 1015.5
20260902121354 74 118 0.0 0.0 0.00 0.00 0.00 91 1015.5
20260902120849 74 127 0.0 0.0 0.00 0.00 0.00 91 1015.6
20260902120346 73 126 0.0 0.0 0.00 0.00 0.00 92 1015.2
20260902115845 73 122 1.0 1.0 0.00 0.00 0.00 92 1015.4
20260902115342 73 128 1.0 1.0 0.00 0.00 0.00 92 1015.3
20260902114838 73 112 0.0 0.0 0.00 0.00 0.00 93 1015.2
20260902114334 73 121 0.0 1.0 0.00 0.00 0.00 93 1015.4
20260902113834 72 118 0.0 0.0 0.00 0.00 0.00 94 1015.3
20260902113330 72 124 0.0 0.0 0.00 0.00 0.00 94 1015.4
20260902112823 72 154 1.0 1.0 0.00 0.00 0.00 94 1015.3
20260902112320 72 154 1.0 1.0 0.00 0.00 0.00 94 1015.1
20260902111815 72 154 0.0 0.0 0.00 0.00 0.00 94 1015.2
20260902111312 72 154 0.0 0.0 0.00 0.00 0.00 94 1015.1
20260902110807 72 154 0.0 0.0 0.00 0.00 0.00 94 1015.0
20260902110303 72 154 0.0 0.0 0.00 0.00 0.00 94 1015.0
20260902105803 72 154 0.0 0.0 0.00 0.00 0.00 94 1014.9
20260902105258 72 154 0.0 0.0 0.00 0.00 0.00 94 1015.0
20260902104753 72 154 0.0 1.0 0.00 0.00 0.00 94 1015.0
20260902104249 72 154 0.0 0.0 0.00 0.00 0.00 94 1015.0
20260902103748 72 159 0.0 0.0 0.00 0.00 0.00 94 1015.0
20260902103243 72 159 0.0 0.0 0.00 0.00 0.00 94 1014.9
20260902102738 72 159 0.0 0.0 0.00 0.00 0.00 94 1014.9
20260902102236 72 159 0.0 0.0 0.00 0.00 0.00 94 1014.9
20260902101731 72 159 0.0 0.0 0.00 0.00 0.00 94 1014.8
20260902101226 72 159 0.0 0.0 0.00 0.00 0.00 94 1014.9
20260902100725 73 159 0.0 0.0 0.00 0.00 0.00 93 1014.8
20260902100220 72 159 0.0 1.0 0.00 0.00 0.00 93 1014.8
20260902095719 73 162 0.0 0.0 0.00 0.00 0.00 93 1014.9
20260902095214 73 163 1.0 1.0 0.00 0.00 0.00 93 1014.8
20260902094708 72 163 0.0 0.0 0.00 0.00 0.00 93 1014.8
20260902094205 73 163 0.0 0.0 0.00 0.00 0.00 93 1014.9
20260902093659 73 163 0.0 0.0 0.00 0.00 0.00 93 1014.8
20260902093154 73 165 1.0 1.0 0.00 0.00 0.00 93 1015.0
20260902092649 73 165 0.0 1.0 0.00 0.00 0.00 93 1015.0
20260902092148 73 165 0.0 0.0 0.00 0.00 0.00 93 1014.9
20260902091643 73 165 1.0 2.0 0.00 0.00 0.00 93 1015.0
20260902091140 73 166 1.0 1.0 0.00 0.00 0.00 93 1015.2
20260902090635 73 168 2.0 3.0 0.00 0.00 0.00 93 1015.0
20260902090134 73 168 1.0 1.0 0.00 0.00 0.00 93 1015.0
20260902085629 73 168 2.0 2.0 0.00 0.00 0.00 93 1014.9
20260902085124 73 168 1.0 2.0 0.00 0.00 0.00 93 1014.9
20260902084620 73 168 1.0 1.0 0.00 0.00 0.00 93 1014.6
20260902084116 73 168 0.0 0.0 0.00 0.00 0.00 93 1014.9
20260902083611 73 168 0.0 0.0 0.00 0.00 0.00 92 1014.8
20260902083110 73 168 1.0 1.0 0.00 0.00 0.00 93 1014.8
20260902082606 73 168 0.0 1.0 0.00 0.00 0.00 92 1014.6
20260902082103 73 169 0.0 1.0 0.00 0.00 0.00 93 1014.8
20260902081559 73 169 0.0 0.0 0.00 0.00 0.00 92 1014.8
20260902081059 73 169 1.0 1.0 0.00 0.00 0.00 93 1014.8
20260902080554 73 178 1.0 1.0 0.00 0.00 0.00 93 1014.6
20260902080050 73 178 0.0 0.0 0.00 0.00 0.00 93 1014.3
20260902075550 73 178 0.0 0.0 0.00 0.00 0.00 93 1014.5
20260902075046 73 178 0.0 1.0 0.00 0.00 0.00 93 1014.6
20260902074542 74 178 0.0 1.0 0.00 0.00 0.00 92 1014.8
20260902074037 74 179 0.0 0.0 0.00 0.00 0.00 92 1014.6
20260902073532 74 178 0.0 0.0 0.00 0.00 0.00 91 1014.5
20260902073028 74 178 0.0 0.0 0.00 0.00 0.00 91 1014.3
20260902072523 74 178 0.0 0.0 0.00 0.00 0.00 91 1014.5
20260902072020 74 178 1.0 1.0 0.00 0.00 0.00 91 1014.4
20260902071519 74 178 0.0 0.0 0.00 0.00 0.00 91 1014.5
20260902071017 74 178 1.0 1.0 0.00 0.00 0.00 91 1014.4
20260902070512 74 179 1.0 1.0 0.00 0.00 0.00 91 1014.5
20260902070011 74 179 0.0 1.0 0.00 0.00 0.00 91 1014.5
20260902065506 74 179 1.0 1.0 0.00 0.00 0.00 91 1014.4
20260902065001 74 179 0.0 0.0 0.00 0.00 0.00 91 1014.4
20260902064456 74 191 0.0 1.0 0.00 0.00 0.00 91 1014.8
20260902063952 74 193 1.0 1.0 0.00 0.00 0.00 91 1014.6
20260902063451 74 193 0.0 0.0 0.00 0.00 0.00 91 1014.5
20260902062947 74 193 0.0 1.0 0.00 0.00 0.00 91 1014.5
20260902062446 75 193 0.0 0.0 0.00 0.00 0.00 90 1014.9
20260902061941 75 193 1.0 1.0 0.00 0.00 0.00 89 1014.6
20260902061436 76 193 1.0 1.0 0.00 0.00 0.00 88 1014.8
20260902060932 77 193 0.0 1.0 0.00 0.00 0.00 86 1014.8
20260902060428 78 193 1.0 1.0 0.00 0.00 0.00 85 1014.8
20260902055924 78 193 0.0 0.0 0.00 0.00 0.00 85 1014.8
20260902055420 78 193 0.0 0.0 0.00 0.00 0.00 84 1014.9
20260902054915 78 200 1.0 1.0 0.00 0.00 0.00 84 1014.6
20260902054410 79 208 2.0 2.0 0.00 0.00 0.00 83 1014.5
20260902053905 79 217 2.0 2.0 0.00 0.00 0.00 83 1014.5
20260902053401 79 223 2.0 3.0 0.00 0.00 0.00 83 1014.6
20260902052859 79 227 2.0 2.0 0.00 0.00 0.00 83 1014.4
20260902052355 79 238 2.0 2.0 0.00 0.00 0.00 83 1014.4
20260902051850 79 215 3.0 3.0 0.00 0.00 0.00 83 1014.2